Home > Weather > Alajuela > Past weeks

Flag for Costa Rica Weather for the Past 2 Weeks in Alajuela, Costa Rica

Now
70 °F

Clear.


Feels Like: 70 °F
Forecast: 70 / 83 °F
Wind: 18 mph from East

Location: Juan Santamaria

Current Time: Feb 13, 2016 at 1:21:25 AM

Latest Report: Feb 13, 2016 at 1:00 AM


Visibility: 10 mi

Pressure: 29.98 "Hg (26.83 "Hg at 955m altitude)

Humidity: 64%

Dew point: 57 °F

Location of AlajuelaLocation

Historic Weather in Alajuela — Graph

°F

Alajuela Temperature Yesterday

Maximum temperature yesterday: 84 °F (at 12:00 PM)
Minimum temperature yesterday: 68 °F (at 10:00 PM)
Average temperature yesterday: 74 °F

High & Low Weather Summary for the Past Weeks

 TemperatureHumidityPressure
High90 °F (Feb 3, 1:00 PM)88% (Jan 30, 2:00 AM)30.09 "Hg (Jan 30, 2:00 AM)
Low59 °F (Feb 1, 5:00 AM)29% (Feb 3, 12:00 PM)29.92 "Hg (Feb 1, 4:00 PM)
Average73 °F57%30.01 "Hg
* Reported Midnight between Jan 28 and Jan 29 — Midnight between Feb 12 and Feb 13, Alajuela, Weather by CustomWeather, © 2016

Note: Actual official high and low records may vary slightly from our data, if they occured in-between our weather recording intervals... More about our weather records

Advertising

Alajuela Weather History for the Previous 24 Hours

 ConditionsComfort  
Time TempWeatherWind HumidityBarometerVisibility
12:00 AM
Sat, Feb 13
70 °FClear.16 mph64%30.01 "Hg10 mi
11:00 PM
Fri, Feb 12
68 °FClear.17 mph69%30.01 "Hg10 mi
10:00 PM68 °FClear.14 mph69%30.02 "Hg10 mi
9:00 PM72 °FPassing clouds.17 mph57%30.02 "HgN/A
8:00 PM70 °FPassing clouds.16 mph69%30.01 "HgN/A
7:00 PM72 °FPassing clouds.17 mph65%29.98 "HgN/A
6:00 PM72 °FPassing clouds.17 mph69%29.96 "HgN/A
5:00 PM77 °FPassing clouds.16 mph54%29.94 "HgN/A
4:00 PM77 °FPassing clouds.14 mph57%29.94 "HgN/A
3:00 PM79 °FPassing clouds.17 mph51%29.94 "HgN/A
2:00 PM81 °FPassing clouds.16 mph48%29.95 "HgN/A
1:00 PM82 °FPassing clouds.20 mph45%29.98 "HgN/A
12:00 PM84 °FPassing clouds.20 mph43%30.00 "HgN/A
11:00 AM82 °FPassing clouds.18 mph45%30.03 "HgN/A
10:00 AM82 °FPassing clouds.20 mph45%30.05 "HgN/A
9:00 AM81 °FPassing clouds.20 mph51%30.05 "HgN/A
8:00 AM75 °FPassing clouds.17 mph61%30.04 "HgN/A
7:00 AM72 °FPassing clouds.13 mph69%30.03 "HgN/A
6:00 AM70 °FPassing clouds.14 mph73%30.01 "HgN/A
5:00 AM70 °FPassing clouds.14 mph73%30.01 "HgN/A
4:00 AM70 °FPassing clouds.14 mph73%29.99 "HgN/A
3:00 AM70 °FPassing clouds.15 mph73%29.98 "HgN/A
2:00 AM70 °FPassing clouds.18 mph73%29.98 "HgN/A
1:00 AM70 °FPassing clouds.17 mph73%30.00 "HgN/A
Weather by CustomWeather, © 2016

See weather overviewHow to use our weather pages